,,Stat6,,Stat2,,Stat8,,Stat9,,Stat10,,Wind1,,Wind1,
time,status,PA1M_AVG,status,PR1M_SUM,status,RH1M_AVG,status,SR1M_AVG,status,TA1M_AVG,status,W1dAve1m,status,W1sAve1m,
2007-10-27, 00:00:00,VALID,916.729,VALID,0,VALID,100,VALID,-0.0339617,VALID,19.6669,VALID,73,VALID,0.277439,
2007-10-27, 00:01:00,VALID,916.751,VALID,0,VALID,100,VALID,-0.0169808,VALID,19.6571,VALID,67,VALID,0.658203,
2007-10-27, 00:02:00,VALID,916.758,VALID,0,VALID,100,VALID,-0.0169808,VALID,19.6738,VALID,67,VALID,0.611049,
2007-10-27, 00:03:00,VALID,916.749,VALID,0,VALID,100,VALID,-0.0339617,VALID,19.6669,VALID,63,VALID,0.237464,
2007-10-27, 00:04:00,VALID,916.746,VALID,0,VALID,100,VALID,-0.0169808,VALID,19.6666,VALID,30,VALID,0.48473,
2007-10-27, 00:05:00,VALID,916.735,VALID,0,VALID,100,VALID,-0.0339617,VALID,19.6604,VALID,42,VALID,0.879542,
2007-10-27, 00:06:00,VALID,916.716,VALID,0,VALID,100,VALID,-0.0169808,VALID,19.6666,VALID,49,VALID,0.810826,
2007-10-27, 00:07:00,VALID,916.676,VALID,0,VALID,100,VALID,0,VALID,19.6798,VALID,56,VALID,1.30153,
2007-10-27, 00:08:00,VALID,916.646,VALID,0,VALID,100,VALID,-0.0169808,VALID,19.6798,VALID,55,VALID,1.07955,
2007-10-27, 00:09:00,VALID,916.608,VALID,0,VALID,100,VALID,-0.0169808,VALID,19.6604,VALID,50,VALID,0.987674,
2007-10-27, 00:10:00,VALID,916.562,VALID,0,VALID,100,VALID,-0.0339617,VALID,19.6536,VALID,42,VALID,0.854539,
2007-10-27, 00:11:00,VALID,916.509,VALID,0,VALID,100,VALID,0,VALID,19.6474,VALID,36,VALID,0.847842,
2007-10-27, 00:12:00,VALID,916.463,VALID,0,VALID,100,VALID,-0.0339617,VALID,19.6574,VALID,41,VALID,1.41406,
2007-10-27, 00:13:00,VALID,916.442,VALID,0,VALID,100,VALID,-0.0679233,VALID,19.6636,VALID,61,VALID,0.826672,
2007-10-27, 00:14:00,VALID,916.429,VALID,0,VALID,100,VALID,-0.0339617,VALID,19.6669,VALID,70,VALID,0.540737,
2007-10-27, 00:15:00,VALID,916.416,VALID,0,VALID,100,VALID,-0.0849042,VALID,19.6806,VALID,74,VALID,0.672433,
2007-10-27, 00:16:00,VALID,916.413,VALID,0,VALID,100,VALID,-0.0849042,VALID,19.6766,VALID,73,VALID,0.340523,
2007-10-27, 00:17:00,VALID,916.399,VALID,0,VALID,100,VALID,-0.0679233,VALID,19.6696,VALID,74,VALID,0.607067,
2007-10-27, 00:18:00,VALID,916.389,VALID,0,VALID,100,VALID,-0.0679233,VALID,19.6898,VALID,70,VALID,0.932465,
2007-10-27, 00:19:00,VALID,916.376,VALID,0,VALID,100,VALID,-0.0339617,VALID,19.6669,VALID,68,VALID,0.980114,
2007-10-27, 00:20:00,VALID,916.356,VALID,0,VALID,100,VALID,-0.0169808,VALID,19.6631,VALID,68,VALID,1.07703,
2007-10-27, 00:21:00,VALID,916.34,VALID,0,VALID,100,VALID,0,VALID,19.6506,VALID,57,VALID,1.13281,
2007-10-27, 00:22:00,VALID,916.326,VALID,0,VALID,100,VALID,-0.0169808,VALID,19.6347,VALID,62,VALID,1.11757,
2007-10-27, 00:23:00,VALID,916.329,VALID,0,VALID,100,VALID,-0.0339617,VALID,19.6352,VALID,57,VALID,0.882631,
2007-10-27, 00:24:00,VALID,916.324,VALID,0,VALID,100,VALID,-0.0339617,VALID,19.6344,VALID,55,VALID,1.17242,
2007-10-27, 00:25:00,VALID,916.329,VALID,0,VALID,100,VALID,-0.0509425,VALID,19.6282,VALID,62,VALID,1.17416,
2007-10-27, 00:26:00,VALID,916.326,VALID,0,VALID,100,VALID,-0.0509425,VALID,19.6247,VALID,66,VALID,0.854992,
2007-10-27, 00:27:00,VALID,916.318,VALID,0,VALID,100,VALID,-0.0679233,VALID,19.6282,VALID,57,VALID,0.933408,
2007-10-27, 00:28:00,VALID,916.309,VALID,0,VALID,100,VALID,0,VALID,19.6279,VALID,56,VALID,1.29052,
2007-10-27, 00:29:00,VALID,916.286,VALID,0,VALID,100,VALID,-0.0169808,VALID,19.6604,VALID,53,VALID,0.846912,
2007-10-27, 00:30:00,VALID,916.273,VALID,0,VALID,100,VALID,-0.0339617,VALID,19.6801,VALID,55,VALID,0.597124,
2007-10-27, 00:31:00,VALID,916.261,VALID,0,VALID,99.9667,VALID,-0.0339617,VALID,19.6634,VALID,46,VALID,0.757267,
2007-10-27, 00:32:00,VALID,916.265,VALID,0,VALID,99.8299,VALID,-0.0169808,VALID,19.6928,VALID,43,VALID,0.770275,
2007-10-27, 00:33:00,VALID,916.243,VALID,0,VALID,99.6887,VALID,0,VALID,19.7155,VALID,79,VALID,0.729936,
2007-10-27, 00:34:00,VALID,916.241,VALID,0,VALID,99.4992,VALID,-0.0169808,VALID,19.745,VALID,57,VALID,0.675305,
2007-10-27, 00:35:00,VALID,916.214,VALID,0,VALID,99.208,VALID,-0.0339617,VALID,19.7313,VALID,57,VALID,0.452553,
2007-10-27, 00:36:00,VALID,916.204,VALID,0,VALID,99.1483,VALID,-0.0339617,VALID,19.7677,VALID,57,VALID,0.320122,
2007-10-27, 00:37:00,VALID,916.197,VALID,0,VALID,99.0084,VALID,-0.0339617,VALID,19.7936,VALID,57,VALID,0.298633,
2007-10-27, 00:38:00,VALID,916.173,VALID,0,VALID,98.9588,VALID,-0.0169808,VALID,19.7994,VALID,57,VALID,0.0163872,
2007-10-27, 00:39:00,VALID,916.137,VALID,0,VALID,98.8584,VALID,-0.0169808,VALID,19.8191,VALID,57,VALID,0.0128997,
2007-10-27, 00:40:00,VALID,916.124,VALID,0,VALID,98.8838,VALID,0,VALID,19.8383,VALID,57,VALID,0.116016,
2007-10-27, 00:41:00,VALID,916.103,VALID,0,VALID,98.88,VALID,-0.0169808,VALID,19.8608,VALID,57,VALID,0.00319602,
2007-10-27, 00:42:00,VALID,916.071,VALID,0,VALID,98.7681,VALID,-0.0169808,VALID,19.8843,VALID,49,VALID,0.393864,
2007-10-27, 00:43:00,VALID,916.041,VALID,0,VALID,98.454,VALID,-0.0169808,VALID,19.884,VALID,58,VALID,0.440104,
2007-10-27, 00:44:00,VALID,916.03,VALID,0,VALID,98.4476,VALID,-0.0679233,VALID,19.911,VALID,63,VALID,0,
2007-10-27, 00:45:00,VALID,916.024,VALID,0,VALID,98.3968,VALID,-0.0849042,VALID,19.9332,VALID,63,VALID,0.207849,
2007-10-27, 00:46:00,VALID,916.022,VALID,0,VALID,98.07,VALID,-0.0509425,VALID,19.9167,VALID,64,VALID,0.539621,
2007-10-27, 00:47:00,VALID,916.032,VALID,0,VALID,98.1679,VALID,-0.0339617,VALID,19.9232,VALID,69,VALID,0.734738,
2007-10-27, 00:48:00,VALID,916.033,VALID,0,VALID,98.2111,VALID,-0.0169808,VALID,19.9491,VALID,56,VALID,0.329578,
2007-10-27, 00:49:00,VALID,916.05,VALID,0,VALID,98.0127,VALID,-0.0509425,VALID,19.9586,VALID,68,VALID,0,
2007-10-27, 00:50:00,VALID,916.053,VALID,0,VALID,97.9631,VALID,0,VALID,19.9651,VALID,68,VALID,0,
2007-10-27, 00:51:00,VALID,916.06,VALID,0,VALID,97.8881,VALID,-0.0169808,VALID,19.9848,VALID,68,VALID,0,
2007-10-27, 00:52:00,VALID,916.07,VALID,0,VALID,97.9504,VALID,-0.0169808,VALID,20.0078,VALID,86,VALID,0.0815549,
2007-10-27, 00:53:00,VALID,916.045,VALID,0,VALID,97.9263,VALID,0,VALID,20.0138,VALID,205,VALID,0.874619,
2007-10-27, 00:54:00,VALID,916.037,VALID,0,VALID,97.9339,VALID,-0.0169808,VALID,19.9911,VALID,217,VALID,0.852289,
2007-10-27, 00:55:00,VALID,916.004,VALID,0,VALID,98.2149,VALID,-0.0679233,VALID,19.9524,VALID,234,VALID,1.07213,
2007-10-27, 00:56:00,VALID,916.001,VALID,0,VALID,98.6028,VALID,-0.0339617,VALID,19.9202,VALID,238,VALID,0.891533,
2007-10-27, 00:57:00,VALID,915.976,VALID,0,VALID,98.8762,VALID,-0.0509425,VALID,19.8745,VALID,238,VALID,0.47904,
2007-10-27, 00:58:00,VALID,915.955,VALID,0,VALID,99.1203,VALID,-0.0339617,VALID,19.8386,VALID,234,VALID,0.544876,
2007-10-27, 00:59:00,VALID,915.936,VALID,0,VALID,99.3212,VALID,-0.0169808,VALID,19.8094,VALID,213,VALID,0.600472,
2007-10-27, 01:00:00,VALID,915.924,VALID,0,VALID,99.4853,VALID,0,VALID,19.7994,VALID,199,VALID,0.926389,
2007-10-27, 01:01:00,VALID,915.919,VALID,0,VALID,99.517,VALID,0,VALID,19.7899,VALID,199,VALID,0.280717,
2007-10-27, 01:02:00,VALID,915.907,VALID,0,VALID,99.5488,VALID,-0.0339617,VALID,19.7837,VALID,199,VALID,0.416903,
2007-10-27, 01:03:00,VALID,915.89,VALID,0,VALID,99.662,VALID,-0.0339617,VALID,19.7902,VALID,199,VALID,0.104106,
2007-10-27, 01:04:00,VALID,915.866,VALID,0,VALID,99.7027,VALID,-0.0169808,VALID,19.7867,VALID,198,VALID,0.178925,
2007-10-27, 01:05:00,VALID,915.848,VALID,0,VALID,99.7993,VALID,-0.0339617,VALID,19.7669,VALID,120,VALID,0.62633,
2007-10-27, 01:06:00,VALID,915.825,VALID,0,VALID,99.8629,VALID,-0.0509425,VALID,19.761,VALID,80,VALID,0.849787,
2007-10-27, 01:07:00,VALID,915.805,VALID,0,VALID,99.9606,VALID,0,VALID,19.7412,VALID,79,VALID,0.747332,
2007-10-27, 01:08:00,VALID,915.773,VALID,0,VALID,99.9741,VALID,-0.0169808,VALID,19.7445,VALID,80,VALID,0.954268,
2007-10-27, 01:09:00,VALID,915.778,VALID,0,VALID,99.9926,VALID,-0.0339617,VALID,19.7512,VALID,85,VALID,0.878162,
2007-10-27, 01:10:00,VALID,915.75,VALID,0,VALID,100,VALID,-0.0169808,VALID,19.7807,VALID,78,VALID,0.355196,
2007-10-27, 01:11:00,VALID,915.725,VALID,0,VALID,100,VALID,-0.0339617,VALID,19.8031,VALID,78,VALID,0.831499,
2007-10-27, 01:12:00,VALID,915.712,VALID,0,VALID,99.9311,VALID,0,VALID,19.8064,VALID,89,VALID,1.23914,
2007-10-27, 01:13:00,VALID,915.697,VALID,0,VALID,99.7599,VALID,-0.0169808,VALID,19.7994,VALID,82,VALID,0.880335,
2007-10-27, 01:14:00,VALID,915.689,VALID,0,VALID,99.7447,VALID,-0.0339617,VALID,19.8161,VALID,95,VALID,0.793713,
2007-10-27, 01:15:00,VALID,915.701,VALID,0,VALID,99.6836,VALID,-0.0339617,VALID,19.8166,VALID,97,VALID,0.335756,
2007-10-27, 01:16:00,VALID,915.698,VALID,0,VALID,99.6582,VALID,-0.0339617,VALID,19.8131,VALID,98,VALID,0.0262784,
2007-10-27, 01:17:00,VALID,915.713,VALID,0,VALID,99.6798,VALID,-0.0169808,VALID,19.8194,VALID,98,VALID,0,
2007-10-27, 01:18:00,VALID,915.721,VALID,0,VALID,99.6633,VALID,-0.0169808,VALID,19.8323,VALID,108,VALID,0.106213,
2007-10-27, 01:19:00,VALID,915.733,VALID,0,VALID,99.6391,VALID,-0.0509425,VALID,19.8288,VALID,119,VALID,0.217115,
2007-10-27, 01:20:00,VALID,915.742,VALID,0,VALID,99.7574,VALID,-0.0169808,VALID,19.8353,VALID,125,VALID,0.166921,
2007-10-27, 01:21:00,VALID,915.747,VALID,0,VALID,99.8744,VALID,-0.0169808,VALID,19.8351,VALID,147,VALID,0.0794271,
2007-10-27, 01:22:00,VALID,915.759,VALID,0,VALID,99.8922,VALID,-0.0849042,VALID,19.8493,VALID,148,VALID,0,
2007-10-27, 01:23:00,VALID,915.767,VALID,0,VALID,99.9074,VALID,-0.118866,VALID,19.8533,VALID,166,VALID,0,
2007-10-27, 01:24:00,VALID,915.779,VALID,0,VALID,99.8273,VALID,-0.101885,VALID,19.8466,VALID,189,VALID,0.111506,
2007-10-27, 01:25:00,VALID,915.772,VALID,0,VALID,99.8693,VALID,-0.135847,VALID,19.8303,VALID,223,VALID,0.897711,
2007-10-27, 01:26:00,VALID,915.773,VALID,0,VALID,99.9804,VALID,-0.169808,VALID,19.8174,VALID,229,VALID,0.49043,
2007-10-27, 01:27:00,VALID,915.778,VALID,0,VALID,99.9613,VALID,-0.118866,VALID,19.7981,VALID,224,VALID,0.715183,
2007-10-27, 01:28:00,VALID,915.766,VALID,0,VALID,99.9781,VALID,-0.135847,VALID,19.7654,VALID,213,VALID,0.805246,
2007-10-27, 01:29:00,VALID,915.781,VALID,0,VALID,100,VALID,-0.118866,VALID,19.7392,VALID,210,VALID,0.731707,
2007-10-27, 01:30:00,VALID,915.774,VALID,0,VALID,100,VALID,-0.101885,VALID,19.7235,VALID,212,VALID,0.802484,
2007-10-27, 01:31:00,VALID,915.776,VALID,0,VALID,100,VALID,-0.118866,VALID,19.7138,VALID,210,VALID,0.690549,
2007-10-27, 01:32:00,VALID,915.77,VALID,0,VALID,100,VALID,-0.135847,VALID,19.6976,VALID,196,VALID,0.816406,
2007-10-27, 01:33:00,VALID,915.775,VALID,0,VALID,100,VALID,-0.152827,VALID,19.6851,VALID,202,VALID,0.656641,
2007-10-27, 01:34:00,VALID,915.776,VALID,0,VALID,100,VALID,-0.101885,VALID,19.6684,VALID,193,VALID,0.976563,
2007-10-27, 01:35:00,VALID,915.76,VALID,0,VALID,100,VALID,-0.135847,VALID,19.6556,VALID,195,VALID,1.01544,
2007-10-27, 01:36:00,VALID,915.763,VALID,0,VALID,100,VALID,-0.101885,VALID,19.6424,VALID,197,VALID,0.703516,
2007-10-27, 01:37:00,VALID,915.777,VALID,0,VALID,100,VALID,-0.0509425,VALID,19.6249,VALID,181,VALID,0.572985,
2007-10-27, 01:38:00,VALID,915.775,VALID,0,VALID,100,VALID,0,VALID,19.6247,VALID,180,VALID,0.609375,
2007-10-27, 01:39:00,VALID,915.781,VALID,0,VALID,100,VALID,0,VALID,19.6115,VALID,174,VALID,1.00591,
2007-10-27, 01:40:00,VALID,915.792,VALID,0,VALID,100,VALID,-0.0339617,VALID,19.5985,VALID,175,VALID,1.00781,
2007-10-27, 01:41:00,VALID,915.795,VALID,0,VALID,100,VALID,-0.0339617,VALID,19.5882,VALID,164,VALID,1.08761,
2007-10-27, 01:42:00,VALID,915.805,VALID,0,VALID,100,VALID,0,VALID,19.5985,VALID,175,VALID,0.824777,
2007-10-27, 01:43:00,VALID,915.826,VALID,0,VALID,100,VALID,0,VALID,19.595,VALID,149,VALID,0.607955,
2007-10-27, 01:44:00,VALID,915.818,VALID,0,VALID,100,VALID,0,VALID,19.6214,VALID,148,VALID,0.7371,
2007-10-27, 01:45:00,VALID,915.83,VALID,0,VALID,100,VALID,0,VALID,19.6135,VALID,132,VALID,0.59003,
2007-10-27, 01:46:00,VALID,915.839,VALID,0,VALID,100,VALID,-0.0169808,VALID,19.6269,VALID,132,VALID,0.677734,
2007-10-27, 01:47:00,VALID,915.845,VALID,0,VALID,100,VALID,0,VALID,19.6339,VALID,141,VALID,0.62173,
2007-10-27, 01:48:00,VALID,915.844,VALID,0,VALID,100,VALID,0,VALID,19.6267,VALID,157,VALID,0.883333,
2007-10-27, 01:49:00,VALID,915.84,VALID,0,VALID,100,VALID,-0.0169808,VALID,19.6207,VALID,176,VALID,0.885243,
2007-10-27, 01:50:00,VALID,915.851,VALID,0,VALID,100,VALID,0,VALID,19.6339,VALID,164,VALID,0.822569,
2007-10-27, 01:51:00,VALID,915.843,VALID,0,VALID,100,VALID,-0.0169808,VALID,19.6339,VALID,168,VALID,0.920015,
2007-10-27, 01:52:00,VALID,915.844,VALID,0,VALID,100,VALID,-0.0849042,VALID,19.6354,VALID,166,VALID,0.81593,
2007-10-27, 01:53:00,VALID,915.851,VALID,0,VALID,100,VALID,-0.101885,VALID,19.6327,VALID,169,VALID,0.84468,
2007-10-27, 01:54:00,VALID,915.855,VALID,0,VALID,100,VALID,-0.135847,VALID,19.6362,VALID,171,VALID,0.877907,
2007-10-27, 01:55:00,VALID,915.853,VALID,0,VALID,100,VALID,-0.135847,VALID,19.6391,VALID,161,VALID,0.800781,
2007-10-27, 01:56:00,VALID,915.843,VALID,0,VALID,100,VALID,-0.118866,VALID,19.6389,VALID,164,VALID,1.35298,
2007-10-27, 01:57:00,VALID,915.839,VALID,0,VALID,100,VALID,-0.0849042,VALID,19.6257,VALID,162,VALID,1.09032,
2007-10-27, 01:58:00,VALID,915.83,VALID,0,VALID,100,VALID,-0.118866,VALID,19.6391,VALID,182,VALID,0.779447,
2007-10-27, 01:59:00,VALID,915.823,VALID,0,VALID,100,VALID,-0.118866,VALID,19.6359,VALID,173,VALID,1.05934,
2007-10-27, 02:00:00,VALID,915.813,VALID,0,VALID,100,VALID,-0.101885,VALID,19.6292,VALID,180,VALID,1.1163,
2007-10-27, 02:01:00,VALID,915.81,VALID,0,VALID,100,VALID,-0.118866,VALID,19.6194,VALID,174,VALID,0.990799,
2007-10-27, 02:02:00,VALID,915.78,VALID,0,VALID,100,VALID,-0.118866,VALID,19.6197,VALID,158,VALID,0.875744,
2007-10-27, 02:03:00,VALID,915.772,VALID,0,VALID,100,VALID,-0.101885,VALID,19.6162,VALID,175,VALID,0.821429,
2007-10-27, 02:04:00,VALID,915.757,VALID,0,VALID,100,VALID,-0.101885,VALID,19.6132,VALID,174,VALID,0.957031,
2007-10-27, 02:05:00,VALID,915.743,VALID,0,VALID,100,VALID,-0.118866,VALID,19.6,VALID,162,VALID,0.662109,
2007-10-27, 02:06:00,VALID,915.739,VALID,0,VALID,100,VALID,-0.118866,VALID,19.6099,VALID,171,VALID,0.69043,
2007-10-27, 02:07:00,VALID,915.727,VALID,0,VALID,100,VALID,-0.0339617,VALID,19.6124,VALID,158,VALID,0.835938,
2007-10-27, 02:08:00,VALID,915.717,VALID,0,VALID,100,VALID,-0.0169808,VALID,19.6052,VALID,141,VALID,0.915365,
2007-10-27, 02:09:00,VALID,915.715,VALID,0,VALID,100,VALID,-0.0339617,VALID,19.602,VALID,164,VALID,0.714939,
2007-10-27, 02:10:00,VALID,915.718,VALID,0,VALID,100,VALID,-0.0169808,VALID,19.5987,VALID,173,VALID,0.381669,
2007-10-27, 02:11:00,VALID,915.705,VALID,0,VALID,100,VALID,0,VALID,19.5987,VALID,174,VALID,0.418155,
2007-10-27, 02:12:00,VALID,915.691,VALID,0,VALID,100,VALID,-0.0509425,VALID,19.6055,VALID,180,VALID,0.464931,
2007-10-27, 02:13:00,VALID,915.663,VALID,0,VALID,100,VALID,-0.0509425,VALID,19.602,VALID,185,VALID,0.721657,
2007-10-27, 02:14:00,VALID,915.634,VALID,0,VALID,100,VALID,-0.0339617,VALID,19.5987,VALID,196,VALID,0.907584,
2007-10-27, 02:15:00,VALID,915.588,VALID,0,VALID,100,VALID,0,VALID,19.5987,VALID,210,VALID,0.979102,
2007-10-27, 02:16:00,VALID,915.566,VALID,0,VALID,100,VALID,0,VALID,19.6015,VALID,207,VALID,0.804315,
2007-10-27, 02:17:00,VALID,915.535,VALID,0,VALID,100,VALID,-0.0169808,VALID,19.5947,VALID,175,VALID,0.684593,
2007-10-27, 02:18:00,VALID,915.496,VALID,0,VALID,100,VALID,0.0169808,VALID,19.6017,VALID,145,VALID,1.01265,
2007-10-27, 02:19:00,VALID,915.454,VALID,0,VALID,100,VALID,-0.0169808,VALID,19.602,VALID,112,VALID,1.16957,
2007-10-27, 02:20:00,VALID,915.426,VALID,0,VALID,100,VALID,-0.0169808,VALID,19.6304,VALID,96,VALID,1.36684,
2007-10-27, 02:21:00,VALID,915.428,VALID,0,VALID,100,VALID,-0.0339617,VALID,19.6569,VALID,111,VALID,0.85377,
2007-10-27, 02:22:00,VALID,915.43,VALID,0,VALID,100,VALID,0.0509425,VALID,19.6916,VALID,164,VALID,0.43641,
2007-10-27, 02:23:00,VALID,915.406,VALID,0,VALID,100,VALID,0.0849042,VALID,19.6971,VALID,193,VALID,0.481836,
2007-10-27, 02:24:00,VALID,915.394,VALID,0,VALID,99.973,VALID,0.0679233,VALID,19.7006,VALID,193,VALID,0.428961,
2007-10-27, 02:25:00,VALID,915.379,VALID,0,VALID,99.9189,VALID,0.0849042,VALID,19.7008,VALID,193,VALID,0.0511533,
2007-10-27, 02:26:00,VALID,915.366,VALID,0,VALID,99.9728,VALID,0.0339617,VALID,19.7143,VALID,193,VALID,0,
2007-10-27, 02:27:00,VALID,915.344,VALID,0,VALID,100,VALID,0.0509425,VALID,19.7455,VALID,183,VALID,0.0221354,
2007-10-27, 02:28:00,VALID,915.334,VALID,0,VALID,100,VALID,0.0679233,VALID,19.7887,VALID,80,VALID,0.695858,
2007-10-27, 02:29:00,VALID,915.317,VALID,0,VALID,100,VALID,0.0849042,VALID,19.8049,VALID,48,VALID,0.874092,
2007-10-27, 02:30:00,VALID,915.308,VALID,0,VALID,99.9977,VALID,0.101885,VALID,19.7984,VALID,43,VALID,0.574219,
2007-10-27, 02:31:00,VALID,915.303,VALID,0,VALID,100,VALID,0.0679233,VALID,19.7754,VALID,43,VALID,0.275213,
2007-10-27, 02:32:00,VALID,915.296,VALID,0,VALID,100,VALID,0.0679233,VALID,19.7659,VALID,43,VALID,0.0483994,
2007-10-27, 02:33:00,VALID,915.296,VALID,0,VALID,100,VALID,0.0509425,VALID,19.74,VALID,43,VALID,0,
2007-10-27, 02:34:00,VALID,915.288,VALID,0,VALID,100,VALID,0.0679233,VALID,19.7268,VALID,43,VALID,0,
2007-10-27, 02:35:00,VALID,915.283,VALID,0,VALID,100,VALID,0.101885,VALID,19.7133,VALID,43,VALID,0,
2007-10-27, 02:36:00,VALID,915.287,VALID,0,VALID,100,VALID,0.0679233,VALID,19.7038,VALID,43,VALID,0,
2007-10-27, 02:37:00,VALID,915.301,VALID,0,VALID,100,VALID,0.0169808,VALID,19.731,VALID,43,VALID,0,
2007-10-27, 02:38:00,VALID,915.292,VALID,0,VALID,100,VALID,0,VALID,19.7542,VALID,43,VALID,0.046317,
2007-10-27, 02:39:00,VALID,915.317,VALID,0,VALID,100,VALID,-0.0509425,VALID,19.7415,VALID,38,VALID,0.567107,
2007-10-27, 02:40:00,VALID,915.314,VALID,0,VALID,100,VALID,-0.0169808,VALID,19.7285,VALID,9,VALID,0.657366,
2007-10-27, 02:41:00,VALID,915.331,VALID,0,VALID,100,VALID,-0.0339617,VALID,19.7021,VALID,351,VALID,0.144886,
2007-10-27, 02:42:00,VALID,915.339,VALID,0,VALID,100,VALID,-0.0169808,VALID,19.7155,VALID,42,VALID,0.580793,
2007-10-27, 02:43:00,VALID,915.344,VALID,0,VALID,100,VALID,0,VALID,19.6766,VALID,44,VALID,0.75,
2007-10-27, 02:44:00,VALID,915.366,VALID,0,VALID,100,VALID,-0.0339617,VALID,19.6374,VALID,47,VALID,0.770833,
2007-10-27, 02:45:00,VALID,915.401,VALID,0,VALID,100,VALID,-0.0509425,VALID,19.6117,VALID,46,VALID,0.72066,
2007-10-27, 02:46:00,VALID,915.425,VALID,0,VALID,100,VALID,-0.0339617,VALID,19.602,VALID,44,VALID,0.547676,
2007-10-27, 02:47:00,VALID,915.452,VALID,0,VALID,100,VALID,-0.0509425,VALID,19.5693,VALID,44,VALID,0.612891,
2007-10-27, 02:48:00,VALID,915.479,VALID,0,VALID,100,VALID,-0.0169808,VALID,19.5273,VALID,53,VALID,0.553757,
2007-10-27, 02:49:00,VALID,915.521,VALID,0,VALID,100,VALID,-0.0169808,VALID,19.5109,VALID,55,VALID,0.341087,
2007-10-27, 02:50:00,VALID,915.545,VALID,0,VALID,100,VALID,-0.0169808,VALID,19.5014,VALID,55,VALID,0.208841,
2007-10-27, 02:51:00,VALID,915.561,VALID,0,VALID,100,VALID,-0.0339617,VALID,19.5014,VALID,55,VALID,0.0137195,
2007-10-27, 02:52:00,VALID,915.601,VALID,0,VALID,100,VALID,-0.0169808,VALID,19.5011,VALID,55,VALID,0.319404,
2007-10-27, 02:53:00,VALID,915.627,VALID,0,VALID,100,VALID,-0.0169808,VALID,19.4944,VALID,55,VALID,0.209847,
2007-10-27, 02:54:00,VALID,915.667,VALID,0,VALID,100,VALID,0,VALID,19.4942,VALID,55,VALID,0.220203,
2007-10-27, 02:55:00,VALID,915.685,VALID,0,VALID,100,VALID,0,VALID,19.4947,VALID,55,VALID,0.131037,
2007-10-27, 02:56:00,VALID,915.701,VALID,0,VALID,100,VALID,-0.0169808,VALID,19.4842,VALID,55,VALID,0,
2007-10-27, 02:57:00,VALID,915.703,VALID,0,VALID,100,VALID,-0.0339617,VALID,19.5136,VALID,48,VALID,0.425781,
2007-10-27, 02:58:00,VALID,915.696,VALID,0,VALID,100,VALID,0,VALID,19.5169,VALID,47,VALID,0.649117,
2007-10-27, 02:59:00,VALID,915.7,VALID,0,VALID,100,VALID,-0.0169808,VALID,19.5338,VALID,47,VALID,0.615916,
2007-10-27, 03:00:01,VALID,915.7,VALID,0,VALID,100,VALID,-0.0339617,VALID,19.5299,VALID,61,VALID,0.610518,
2007-10-27, 03:01:00,VALID,915.686,VALID,0,VALID,100,VALID,-0.0169808,VALID,19.5231,VALID,67,VALID,0.449219,
2007-10-27, 03:02:00,VALID,915.694,VALID,0,VALID,100,VALID,-0.0169808,VALID,19.5104,VALID,66,VALID,0.0467052,
2007-10-27, 03:03:01,VALID,915.69,VALID,0,VALID,100,VALID,-0.0169808,VALID,19.5271,VALID,66,VALID,0.00390625,
2007-10-27, 03:04:00,VALID,915.674,VALID,0,VALID,100,VALID,-0.0169808,VALID,19.5393,VALID,66,VALID,0,
2007-10-27, 03:05:00,VALID,915.663,VALID,0,VALID,100,VALID,0,VALID,19.5561,VALID,66,VALID,0,
2007-10-27, 03:06:00,VALID,915.66,VALID,0,VALID,100,VALID,0,VALID,19.563,VALID,66,VALID,0,
2007-10-27, 03:07:00,VALID,915.644,VALID,0,VALID,100,VALID,-0.0169808,VALID,19.5561,VALID,66,VALID,0,
2007-10-27, 03:08:00,VALID,915.628,VALID,0,VALID,100,VALID,-0.0339617,VALID,19.5623,VALID,66,VALID,0.177431,
2007-10-27, 03:09:00,VALID,915.598,VALID,0,VALID,100,VALID,-0.0169808,VALID,19.5625,VALID,53,VALID,1.01334,
2007-10-27, 03:10:00,VALID,915.589,VALID,0,VALID,100,VALID,-0.0169808,VALID,19.5463,VALID,65,VALID,0.889717,
2007-10-27, 03:11:00,VALID,915.576,VALID,0,VALID,100,VALID,-0.0169808,VALID,19.5336,VALID,50,VALID,0.866797,
2007-10-27, 03:12:00,VALID,915.57,VALID,0,VALID,100,VALID,-0.0169808,VALID,19.5271,VALID,50,VALID,0.898983,
2007-10-27, 03:13:00,VALID,915.562,VALID,0,VALID,100,VALID,0,VALID,19.5241,VALID,35,VALID,0.877544,
2007-10-27, 03:14:01,VALID,915.57,VALID,0,VALID,100,VALID,0,VALID,19.5066,VALID,29,VALID,0.270712,
2007-10-27, 03:15:00,VALID,915.585,VALID,0,VALID,100,VALID,0,VALID,19.5136,VALID,28,VALID,0.0421512,
2007-10-27, 03:16:01,VALID,915.571,VALID,0,VALID,100,VALID,-0.0339617,VALID,19.5269,VALID,33,VALID,0.787418,
2007-10-27, 03:17:00,VALID,915.574,VALID,0,VALID,100,VALID,-0.0169808,VALID,19.5331,VALID,42,VALID,0.751302,
2007-10-27, 03:18:01,VALID,915.567,VALID,0,VALID,100,VALID,0,VALID,19.5134,VALID,35,VALID,0.994496,
2007-10-27, 03:19:01,VALID,915.566,VALID,0,VALID,100,VALID,0,VALID,19.5002,VALID,59,VALID,0.562881,
2007-10-27, 03:20:00,VALID,915.581,VALID,0,VALID,100,VALID,-0.0169808,VALID,19.5106,VALID,47,VALID,0.489644,
2007-10-27, 03:21:01,VALID,915.564,VALID,0,VALID,100,VALID,-0.0169808,VALID,19.5139,VALID,46,VALID,0.486374,
2007-10-27, 03:22:00,VALID,915.567,VALID,0,VALID,100,VALID,-0.0169808,VALID,19.4869,VALID,46,VALID,0.267078,
2007-10-27, 03:23:00,VALID,915.583,VALID,0,VALID,100,VALID,0,VALID,19.4942,VALID,46,VALID,0.300495,
2007-10-27, 03:24:00,VALID,915.592,VALID,0,VALID,100,VALID,0,VALID,19.4874,VALID,46,VALID,0.309338,
2007-10-27, 03:25:01,VALID,915.59,VALID,0,VALID,100,VALID,0.0169808,VALID,19.4844,VALID,43,VALID,0.38228,
2007-10-27, 03:26:01,VALID,915.595,VALID,0,VALID,100,VALID,-0.0169808,VALID,19.4774,VALID,38,VALID,0.641369,
2007-10-27, 03:27:01,VALID,915.606,VALID,0,VALID,100,VALID,-0.0169808,VALID,19.4582,VALID,55,VALID,0.865552,
2007-10-27, 03:28:00,VALID,915.593,VALID,0,VALID,100,VALID,0.0339617,VALID,19.4485,VALID,57,VALID,1.33412,
2007-10-27, 03:29:00,VALID,915.596,VALID,0,VALID,100,VALID,0,VALID,19.4283,VALID,57,VALID,0.962573,
2007-10-27, 03:30:01,VALID,915.589,VALID,0,VALID,100,VALID,0,VALID,19.4225,VALID,58,VALID,1.7242,
2007-10-27, 03:31:01,VALID,915.574,VALID,0,VALID,100,VALID,0,VALID,19.4191,VALID,54,VALID,1.29524,
2007-10-27, 03:32:00,VALID,915.553,VALID,0,VALID,100,VALID,0,VALID,19.4195,VALID,66,VALID,0.864583,
2007-10-27, 03:33:00,VALID,915.54,VALID,0,VALID,100,VALID,0,VALID,19.4058,VALID,59,VALID,0.442969,
2007-10-27, 03:34:00,VALID,915.521,VALID,0,VALID,100,VALID,0,VALID,19.3896,VALID,71,VALID,0.461806,
2007-10-27, 03:35:01,VALID,915.502,VALID,0,VALID,100,VALID,0,VALID,19.3769,VALID,62,VALID,0.763765,
2007-10-27, 03:36:00,VALID,915.496,VALID,0,VALID,100,VALID,0,VALID,19.3706,VALID,64,VALID,0.721989,
2007-10-27, 03:37:00,VALID,915.492,VALID,0,VALID,100,VALID,0,VALID,19.3614,VALID,67,VALID,0.765807,
2007-10-27, 03:38:00,VALID,915.5,VALID,0,VALID,100,VALID,0,VALID,19.3412,VALID,53,VALID,1.05977,
2007-10-27, 03:39:01,VALID,915.503,VALID,0,VALID,100,VALID,0,VALID,19.3387,VALID,55,VALID,0.753405,